TimeEST,TemperatureF,Dew PointF,Humidity,Sea Level PressureIn,VisibilityMPH,Wind Direction,Wind SpeedMPH,Gust SpeedMPH,PrecipitationIn,Events,Conditions,WindDirDegrees,DateUTC
12:51 AM,39.9,26.1,58,29.90,10.0,WSW,12.7,-,N/A,,Overcast,250,2013-01-01 05:51:00
1:51 AM,39.0,26.1,60,29.91,10.0,West,12.7,-,N/A,,Overcast,260,2013-01-01 06:51:00
2:51 AM,39.0,26.1,60,29.90,10.0,West,11.5,-,N/A,,Overcast,270,2013-01-01 07:51:00
3:51 AM,39.9,27.0,60,29.91,10.0,West,15.0,-,N/A,,Overcast,260,2013-01-01 08:51:00
4:51 AM,39.9,28.0,63,29.91,10.0,WSW,17.3,-,N/A,,Overcast,250,2013-01-01 09:51:00
5:51 AM,39.0,27.0,62,29.89,10.0,West,15.0,-,N/A,,Overcast,260,2013-01-01 10:51:00
6:51 AM,37.9,27.0,65,29.91,10.0,West,13.8,-,N/A,,Mostly Cloudy,260,2013-01-01 11:51:00
7:51 AM,39.0,28.0,65,29.90,10.0,West,13.8,-,N/A,,Overcast,260,2013-01-01 12:51:00
8:51 AM,39.9,27.0,60,29.91,10.0,West,17.3,-,N/A,,Overcast,260,2013-01-01 13:51:00
9:51 AM,39.9,27.0,60,29.92,10.0,West,16.1,-,N/A,,Overcast,260,2013-01-01 14:51:00
10:51 AM,41.0,28.0,60,29.91,10.0,West,16.1,-,N/A,,Overcast,260,2013-01-01 15:51:00
11:51 AM,41.0,27.0,57,29.88,10.0,West,15.0,-,N/A,,Overcast,270,2013-01-01 16:51:00
12:51 PM,39.9,26.1,58,29.87,10.0,WNW,17.3,-,N/A,,Overcast,290,2013-01-01 17:51:00
1:02 PM,37.4,26.6,65,29.87,10.0,NNW,15.0,-,N/A,,Overcast,340,2013-01-01 18:02:00
1:51 PM,37.9,26.1,62,29.86,10.0,NW,11.5,-,N/A,,Overcast,310,2013-01-01 18:51:00
2:51 PM,39.0,24.1,55,29.86,10.0,NW,11.5,-,N/A,,Overcast,310,2013-01-01 19:51:00
3:51 PM,39.0,23.0,53,29.88,10.0,WNW,12.7,-,N/A,,Mostly Cloudy,290,2013-01-01 20:51:00
4:51 PM,37.9,18.0,45,29.89,10.0,NW,17.3,24.2,N/A,,Mostly Cloudy,320,2013-01-01 21:51:00
5:51 PM,37.0,17.1,44,29.92,10.0,NNW,16.1,25.3,N/A,,Mostly Cloudy,330,2013-01-01 22:51:00
6:51 PM,35.1,14.0,42,29.95,10.0,NW,15.0,-,N/A,,Mostly Cloudy,310,2013-01-01 23:51:00
7:51 PM,33.1,14.0,46,29.96,10.0,North,13.8,24.2,N/A,,Mostly Cloudy,350,2013-01-02 00:51:00
8:51 PM,32.0,14.0,48,29.98,10.0,NNW,16.1,-,N/A,,Mostly Cloudy,330,2013-01-02 01:51:00
9:51 PM,30.0,10.9,45,29.99,10.0,NNW,21.9,29.9,N/A,,Mostly Cloudy,330,2013-01-02 02:51:00
10:51 PM,28.9,10.9,47,30.02,10.0,NW,16.1,-,N/A,,Overcast,320,2013-01-02 03:51:00
11:51 PM,27.0,8.1,45,30.02,10.0,NW,20.7,35.7,N/A,,Overcast,320,2013-01-02 04:51:00